Starlink 11120

operational
NORAD ID: 60042 Int'l Des: 2024-112 Owner: SPXS Country: US Constellation: starlink
LEOCIRCULAR

About Starlink 11120

Description loading...

Live Position

Loading 3D Globe...

Upcoming Passes

Altitude History

Altitude vs Time

uPlot chart will show altitude changes over time

Two-Line Element Set

1 60042U 24112E 25260.59843599 -.00000329 00000-0 21405-5 0 9991
2 60042 53.1589 39.6525 0000955 98.9361 261.1765 15.69723060 73793
Epoch: Sep 17, 2025 • Age: 22 hours

Current Status

Altitude 361.6 km
Velocity 7.69 km/s
Sub-Earth Point -6.53°S, 34.01°E
Launch Date Jun 8, 2024
Age 1.2 years
Type internet

Technical Details

Classification Payload
Mass 960.00 kg
Dry Mass 910.00 kg
Total Mass 960.00 kg
Length 0.30 m
Diameter 4.10 m
Span 29.00 m
Shape Box + pan
Manufacturer SPXS
Bus Type Starlink V2MD
Phase Status In Orbit
Owner/State SPXS/US

Large Constellations

Loading constellations...